Simultaneous Nadir Overpasses (SNOs) Predictions

Prediction of SNOs between NOAA-20 and METOP-B Satellite Orbit:

Table of predicted SNOs for the next 14.0 days since TLE Epoch: 3/15/2024
Index Date (NOAA-20) Time (NOAA-20) Lat,Lon (NOAA-20) SZA (NOAA-20 ) Date (METOP-B) Time (METOP-B) Lat,Lon (METOP-B) SZA (METOP-B ) Distance(km) Time Diff (sec)
1 03/28/2024 19:27:37 73.77,-122.22 70.61 03/28/2024 19:28:45 73.72,-119.92 70.43 71.97 68
2 03/28/2024 20:18:20 -73.70, 45.25 109.48 03/28/2024 20:19:29 -73.62, 47.18 109.68 60.82 69
3 03/28/2024 21:09:01 73.48,-146.92 70.26 03/28/2024 21:10:12 73.45,-145.87 70.16 33.09 71
4 03/28/2024 21:59:44 -73.41, 20.55 109.83 03/28/2024 22:00:56 -73.35, 21.23 109.95 22.53 72
5 03/28/2024 22:50:26 73.24,-171.74 69.96 03/28/2024 22:51:38 73.23,-171.71 69.94 1.37 72
6 03/28/2024 23:41:10 -73.22, -4.39 110.07 03/28/2024 23:42:20 -73.23, -4.38 110.08 1.21 70
7 03/29/2024 00:31:55 73.20, 162.98 69.89 03/29/2024 00:33:00 73.21, 162.91 69.89 2.80 65
8 03/29/2024 01:22:40 -73.23, -29.79 110.09 03/29/2024 01:23:42 -73.21, -29.76 110.12 2.10 62
9 03/29/2024 02:13:25 73.20, 137.58 69.87 03/29/2024 02:14:22 73.19, 137.53 69.85 2.30 57



Historial Predications of SNOs between NOAA-20 and METOP-B
